Date,TemperatureHighF,TemperatureAvgF,TemperatureLowF,DewpointHighF,DewpointAvgF,DewpointLowF,HumidityHigh,HumidityAvg,HumidityLow,PressureMaxIn,PressureMinIn,WindSpeedMaxMPH,WindSpeedAvgMPH,GustSpeedMaxMPH,PrecipitationSumIn
2014-1-1,32.5,30.4,28.5,19.5,18.0,14.5,68,60,52,30.32,30.14,9,1,9,0.00
2014-1-2,30.1,25.3,17.0,21.6,19.3,14.1,90,78,64,30.14,29.58,17,4,17,0.00
2014-1-3,16.9,12.4,3.7,14.0,3.2,-7.4,88,67,46,30.40,29.56,25,7,32,0.00
2014-1-4,26.1,12.4,-2.6,8.8,0.6,-9.2,79,60,38,30.45,30.22,10,0,10,0.02
2014-1-5,36.8,22.0,7.0,36.5,19.3,2.7,99,89,77,30.24,29.66,9,1,10,0.23
2014-1-6,58.0,39.3,10.5,57.5,30.4,-13.8,100,73,31,29.78,29.30,31,8,32,0.30
2014-1-7,22.1,5.6,1.1,-8.4,-14.1,-21.1,47,39,33,30.32,29.67,34,11,34,0.00
2014-1-8,21.1,13.8,5.8,5.1,-3.1,-10.1,60,47,33,30.50,30.30,16,3,16,0.00
2014-1-9,32.4,24.2,17.7,13.9,9.4,2.6,67,53,38,30.59,30.42,7,0,7,0.00
2014-1-10,32.9,28.7,23.2,32.4,24.9,12.1,98,86,66,30.54,30.11,5,0,5,0.17
2014-1-11,62.0,45.6,32.9,61.0,45.4,31.7,100,99,97,30.18,29.35,22,3,22,0.32
2014-1-12,43.5,41.8,32.7,29.8,27.6,25.5,75,57,52,30.01,29.67,26,10,26,0.00
2014-1-13,55.7,40.7,25.8,36.5,30.6,23.8,93,69,39,30.05,29.79,17,0,17,0.00
2014-1-14,48.2,45.1,37.9,45.5,41.6,34.4,98,88,62,29.83,29.60,13,0,13,0.25
2014-1-15,42.3,35.3,27.9,40.8,34.9,27.4,100,99,93,29.92,29.76,6,0,8,0.00
2014-1-16,39.1,36.4,33.8,36.5,32.4,29.5,93,85,80,29.84,29.80,13,3,13,0.00
2014-1-19,36.2,31.1,19.5,23.2,18.3,10.9,69,59,52,29.76,29.60,22,4,22,0.00
2014-1-20,44.8,37.7,31.6,28.2,24.2,20.2,70,58,44,29.80,29.52,25,4,25,0.00
2014-1-21,35.3,19.0,10.9,20.7,12.0,6.0,89,76,48,29.91,29.76,17,4,17,0.00
2014-1-22,14.8,8.2,1.7,6.0,-5.0,-9.4,81,55,39,29.95,29.74,22,7,23,0.00
2014-1-23,19.2,10.7,1.5,5.0,-1.9,-8.9,76,57,44,30.24,29.94,13,4,19,0.00
2014-1-24,18.1,11.9,6.1,4.3,-2.3,-6.2,78,53,38,30.34,29.99,22,4,22,0.00
2014-1-25,24.1,19.4,12.6,19.7,9.8,-1.7,88,68,45,30.08,29.37,25,2,25,0.00
2014-1-26,23.6,20.2,14.8,18.8,5.4,-6.5,85,53,37,29.85,29.39,27,5,27,0.00
2014-1-27,39.2,25.2,18.6,25.6,10.2,-4.6,78,56,29,30.02,29.54,27,5,27,0.04
2014-1-28,21.6,13.3,9.7,0.4,-6.1,-9.9,58,41,32,30.32,29.98,20,5,20,0.00
2014-1-29,20.3,13.5,8.8,6.4,-3.3,-10.9,81,49,28,30.24,30.06,17,4,20,0.00
2014-1-30,28.1,15.9,3.7,4.5,-1.5,-6.5,65,47,29,30.40,30.11,11,0,11,0.01
2014-1-31,37.6,26.7,13.3,19.1,12.2,0.4,70,55,37,30.17,30.02,12,0,12,0.00
2014-2-1,46.1,34.4,26.6,25.6,20.5,15.4,79,58,34,30.24,29.94,11,1,12,0.00
2014-2-2,51.9,38.5,24.1,38.0,30.5,21.2,94,74,49,30.01,29.84,9,0,9,0.00
2014-2-3,41.2,31.9,23.2,31.8,29.6,19.4,98,92,71,30.25,29.99,8,0,8,0.10
2014-2-4,34.0,25.4,16.5,25.3,19.2,11.7,88,78,58,30.39,30.14,4,0,4,0.41
2014-2-5,31.8,30.0,27.9,30.8,28.5,24.7,97,94,88,30.25,29.73,12,1,12,0.00
2014-2-9,28.1,24.8,19.9,21.8,15.0,6.4,92,68,43,30.11,29.93,9,0,9,0.00
2014-2-10,27.6,21.5,11.4,19.7,8.9,2.9,90,59,40,30.21,29.94,14,3,20,0.00
2014-2-11,24.4,16.2,6.5,5.8,1.6,-1.6,79,54,34,30.41,30.19,20,3,20,0.00
2014-2-12,16.5,8.6,2.8,0.1,-1.3,-4.3,75,64,53,30.45,30.40,9,0,9,0.00
2014-3-15,56.5,51.6,42.6,31.3,24.3,20.1,47,35,25,29.93,29.70,29,8,29,0.23
2014-3-16,44.8,33.6,28.7,22.9,9.7,1.2,53,37,27,30.12,29.92,20,5,20,0.00
2014-3-17,32.7,28.0,22.9,9.6,3.2,-7.3,54,34,25,30.06,29.94,15,3,15,0.00
2014-3-18,42.2,32.6,25.0,20.9,10.1,2.6,72,40,20,30.20,30.03,18,3,18,0.00
2014-3-19,41.1,34.9,25.6,40.0,30.7,20.4,98,85,73,30.20,29.74,13,3,18,0.66
2014-3-20,51.0,44.4,39.9,43.0,31.5,20.7,99,65,33,29.85,29.67,27,6,27,0.01
2014-3-21,51.6,42.2,33.5,23.2,19.7,14.9,57,42,25,29.96,29.84,26,5,26,0.00
2014-3-22,63.4,47.0,30.9,36.5,26.5,18.5,68,48,23,29.95,29.69,27,4,27,0.00
2014-3-23,45.5,37.2,26.3,26.5,17.5,5.2,63,45,28,30.06,29.89,18,4,20,0.00
2014-3-24,32.9,25.8,19.1,6.7,2.9,0.0,54,38,26,30.19,30.03,23,5,23,0.00
2014-3-25,38.3,28.3,16.5,25.2,13.2,0.8,83,54,32,30.09,29.78,17,2,17,0.00
2014-3-26,32.9,29.8,24.5,25.0,9.7,-0.5,83,45,27,30.18,29.70,34,10,34,0.00
2014-3-27,43.9,31.0,18.1,19.5,7.7,2.1,56,38,21,30.35,30.17,15,3,19,0.00
2014-3-28,61.8,45.8,30.4,50.5,36.8,18.5,94,71,55,30.19,29.87,24,1,24,0.06
2014-3-29,59.2,47.0,44.6,48.7,43.9,39.4,99,89,72,30.07,29.57,18,4,18,1.20
2014-3-30,46.2,44.0,38.3,46.2,42.5,35.1,100,95,81,29.62,29.39,22,5,22,0.85
2014-3-31,53.6,43.9,36.0,35.0,31.4,29.0,87,63,40,29.99,29.59,26,7,26,0.15
2014-4-1,58.3,46.3,31.5,36.4,31.2,25.8,81,57,37,30.06,29.89,18,1,20,0.00
2014-4-2,55.0,44.2,36.6,46.5,39.6,32.6,95,84,69,30.07,29.95,9,0,9,0.08
2014-4-3,64.5,52.6,41.9,43.7,32.0,20.5,97,52,19,30.05,29.87,15,0,15,0.05
2014-4-4,48.0,41.1,39.6,41.8,39.5,37.8,99,94,85,29.98,29.67,18,3,18,0.14
2014-4-5,51.4,44.6,38.8,43.5,33.1,23.4,99,68,41,30.01,29.65,31,6,31,0.03
2014-4-6,58.9,44.9,31.9,31.5,21.9,16.4,64,43,20,30.14,29.99,14,2,14,0.00
2014-4-7,50.7,42.1,31.6,47.4,36.4,21.6,98,81,51,30.12,29.58,17,3,17,0.19
2014-4-8,52.8,47.2,46.0,52.5,47.1,45.5,100,100,98,29.65,29.35,16,1,16,0.05
2014-4-15,67.4,53.3,33.8,64.6,50.5,31.6,97,90,81,29.87,29.41,32,8,32,0.27
2014-4-16,45.4,37.0,29.0,32.5,18.1,12.4,92,48,28,30.48,29.79,26,6,26,0.57
2014-4-17,47.3,39.1,30.6,31.0,23.6,16.3,75,54,36,30.63,30.48,17,3,19,0.11
2014-4-18,52.0,42.4,34.4,34.3,29.9,27.1,82,63,39,30.53,30.18,10,1,10,0.00
2014-4-19,65.5,51.7,36.6,38.3,28.9,20.7,91,49,19,30.24,30.14,18,2,18,0.03
2014-4-20,56.5,49.2,40.1,37.7,27.8,20.5,73,44,30,30.39,30.22,21,3,21,0.00
2014-4-21,68.8,50.8,30.4,43.2,27.3,13.3,82,47,15,30.24,29.78,6,0,11,0.00
2014-4-22,73.3,57.9,44.6,53.8,46.9,41.8,94,69,39,29.80,29.43,21,2,21,0.01
2014-4-23,60.9,50.8,42.9,45.8,34.6,26.5,66,54,43,29.80,29.44,33,11,33,0.00
2014-4-24,59.8,49.4,40.5,26.5,17.2,8.8,52,30,14,29.95,29.78,31,8,31,0.00
2014-4-25,66.3,51.2,35.5,41.0,24.8,10.2,81,38,19,29.96,29.67,20,2,20,0.07
2014-4-26,66.8,53.4,44.3,49.8,44.1,34.2,98,74,35,29.80,29.60,17,2,17,0.24
2014-4-27,59.3,51.0,41.6,43.0,33.6,31.2,81,52,36,30.03,29.80,16,4,21,0.00
2014-4-28,62.4,51.8,37.9,39.5,34.0,29.6,79,53,31,30.05,29.91,14,1,14,0.00
2014-4-29,51.0,45.8,41.8,40.5,38.6,35.3,92,76,57,30.28,29.99,19,6,28,0.13
2014-4-30,51.4,44.7,40.6,51.1,43.8,38.4,99,97,85,30.29,29.83,24,6,24,3.10
2014-5-1,76.3,62.9,51.4,61.3,53.8,43.5,100,77,37,29.92,29.58,17,2,23,0.10
2014-5-2,63.2,57.0,54.5,44.2,41.8,40.1,63,57,52,29.68,29.64,23,0,23,0.00
2014-8-24,78.6,70.0,61.3,59.6,58.8,57.3,92,69,49,30.06,30.00,10,0,10,0.04
2014-8-25,85.5,70.6,55.4,63.1,58.6,54.8,99,71,38,30.09,30.02,9,0,9,0.00
2014-8-26,87.0,73.8,59.8,65.2,61.4,57.5,99,69,39,30.07,29.96,10,0,10,0.00
2014-8-27,90.7,76.9,61.5,68.9,63.9,60.6,98,68,40,29.98,29.76,9,0,12,0.00
2014-8-28,78.3,71.9,61.0,68.4,54.5,47.3,76,56,37,29.98,29.76,19,3,19,0.00
2014-8-29,79.0,65.7,51.1,56.6,51.1,47.1,93,63,34,30.15,29.95,13,0,13,0.00
2014-8-30,77.0,66.9,52.0,64.2,58.6,51.2,98,77,57,30.18,30.05,12,0,12,0.00
2014-8-31,89.9,75.9,68.8,74.4,68.3,60.0,95,78,51,30.07,29.86,24,1,24,0.06
2014-9-1,88.0,79.1,71.6,72.8,71.0,66.9,98,78,54,29.92,29.82,12,0,12,0.00
2014-9-2,91.0,82.5,70.4,74.2,69.1,65.4,99,67,44,29.86,29.71,16,2,19,0.00
2014-9-3,82.8,75.1,65.8,66.9,61.3,56.0,89,64,42,30.03,29.73,16,1,18,0.00
2014-9-4,88.4,73.7,58.4,65.3,60.4,55.0,99,68,34,30.10,30.00,10,0,13,0.00
2014-9-5,86.5,71.6,65.6,72.2,67.5,62.9,96,88,60,30.09,30.00,11,0,11,0.00
2014-11-8,47.9,43.1,31.8,32.5,28.4,23.8,72,56,45,29.96,29.82,14,2,14,2.19
2014-11-9,56.2,45.5,35.8,37.9,33.2,29.9,85,64,39,29.93,29.81,15,1,15,0.00
2014-11-10,62.1,45.6,30.1,38.4,34.1,28.1,95,67,38,30.10,29.93,9,0,9,0.00
2014-11-11,69.4,52.3,35.9,55.7,45.6,33.8,95,79,60,30.07,29.82,7,0,7,0.00
2014-11-12,65.3,54.8,42.5,60.6,46.5,29.9,100,77,44,29.99,29.79,20,1,20,0.00
2014-11-13,44.8,38.9,32.8,33.8,29.1,25.5,97,69,50,30.04,29.92,7,1,12,0.13
2014-11-14,40.1,34.7,26.1,33.6,21.8,14.7,97,61,38,30.12,29.89,18,4,24,0.04
2014-11-15,41.6,32.8,26.1,23.0,18.4,12.9,81,57,31,30.28,30.10,16,2,16,0.00
2014-11-16,41.8,34.3,24.1,34.2,25.2,16.8,90,70,55,30.30,30.01,9,0,9,0.05
2014-11-17,44.9,39.9,36.5,44.9,38.3,30.4,100,95,65,30.06,29.41,18,2,19,1.17
2014-11-18,43.6,27.5,21.8,30.7,7.5,-0.3,66,43,30,30.06,29.50,32,10,32,0.00
2014-11-19,31.3,25.0,19.2,14.2,6.2,1.2,59,45,31,30.21,29.95,20,3,20,0.00
2014-11-20,44.2,31.7,19.4,24.9,16.1,5.5,80,55,34,30.01,29.76,23,4,23,0.00
2014-11-21,35.9,28.4,21.9,10.4,8.5,3.6,59,43,27,30.42,29.93,24,5,24,0.00
2014-11-22,42.9,32.9,19.5,20.5,14.3,9.1,67,48,30,30.42,30.12,18,2,18,0.00
2014-11-23,57.2,45.7,37.2,36.9,25.5,19.8,72,46,29,30.14,29.87,11,1,11,0.00
2014-11-24,71.3,63.6,45.5,62.0,56.4,31.6,100,79,61,29.94,29.47,27,6,27,0.45
2014-11-25,65.8,56.4,51.1,58.0,37.8,28.1,79,50,40,29.94,29.61,22,5,22,0.00
2014-12-9,41.9,39.8,34.6,40.0,37.3,33.8,97,91,78,30.01,29.63,19,6,19,1.43
2014-12-10,41.6,36.8,30.4,34.9,28.5,21.2,91,72,61,29.63,29.55,24,9,29,0.00
2014-12-11,35.2,32.3,29.3,28.8,25.7,21.2,87,77,64,29.81,29.57,24,6,24,0.00
2014-12-12,38.3,34.4,31.9,27.0,24.4,22.1,80,67,57,29.93,29.80,16,5,19,0.00
2014-12-13,40.9,37.1,33.8,30.1,26.3,21.3,74,65,56,29.93,29.82,13,5,21,0.00
2014-12-14,44.8,40.3,36.8,33.5,30.7,27.7,75,68,61,29.90,29.79,20,4,20,0.00
2014-12-15,47.9,40.0,30.4,34.4,32.0,28.6,93,73,58,30.02,29.90,18,2,18,0.00
2014-12-16,49.4,39.8,29.8,43.6,37.4,28.0,99,91,73,30.02,29.74,11,1,11,0.19
2014-12-17,50.4,44.5,36.8,44.3,36.6,23.0,99,75,54,29.85,29.73,25,5,25,0.01
2014-12-18,39.5,36.8,33.8,26.2,23.7,21.3,66,59,50,29.95,29.83,23,6,23,0.00
2014-12-19,37.5,34.8,30.7,26.3,22.7,19.7,67,61,52,30.11,29.90,18,5,18,0.00
2014-12-20,32.2,30.6,29.5,22.1,20.7,19.4,72,66,62,30.22,30.09,13,1,13,0.00
2014-12-21,35.3,32.7,30.0,26.0,23.2,20.6,74,68,64,30.25,30.19,11,1,11,0.00
2014-12-22,43.1,36.5,32.5,42.6,32.9,24.7,98,86,74,30.25,30.04,7,0,7,0.01
2014-12-23,45.8,44.9,43.1,45.8,44.8,39.2,100,99,98,30.09,29.97,18,2,18,0.16
2014-12-24,62.0,48.2,45.1,62.0,48.2,44.6,100,100,100,30.00,29.42,14,2,14,0.53
2014-12-25,62.6,49.8,40.2,62.4,37.9,29.2,100,65,46,30.06,29.42,26,8,28,0.07
2014-12-26,48.5,39.9,32.8,31.8,29.2,27.4,81,66,48,30.19,30.02,15,2,15,0.00
2014-12-27,56.6,43.9,32.7,34.9,31.2,27.7,86,63,38,30.19,29.99,11,0,11,0.00
2014-12-28,53.2,45.4,39.6,43.7,38.0,30.7,94,76,61,30.03,29.80,15,2,15,0.05
2014-12-29,43.9,36.9,28.7,31.9,21.6,16.5,72,55,36,30.18,29.96,14,1,14,0.00
2014-12-30,34.4,28.6,20.0,19.7,15.2,10.0,75,57,41,30.32,30.16,13,1,13,0.00
2014-12-31,30.9,24.6,18.9,12.9,9.1,5.3,75,53,35,30.30,30.11,14,3,22,0.00
2015-1-1,39.6,29.6,20.6,17.6,11.4,7.2,61,47,31,30.12,29.90,21,2,21,0.00
2015-1-2,40.8,33.5,26.3,20.3,18.3,16.7,73,54,40,30.37,29.93,25,3,25,0.00